LRTZ Weather Reports


Display with metric or nautical units.
time (UTC)temp
F
wind
direction
speed
MPH
gust
MPH
rain 1hr
in
rain 24hr
in
rain mn
in
humidity
%
barometer
mb
20260506164902 57 160 9.0 0.0 0.00 0.00 0.00 77 1016.0
20260506163402 57 160 9.0 0.0 0.00 0.00 0.00 77 1016.0
20260506161903 57 160 9.0 0.0 0.00 0.00 0.00 77 1016.0
20260506160402 57 160 9.0 0.0 0.00 0.00 0.00 77 1016.0
20260506154903 59 140 11.0 0.0 0.00 0.00 0.00 72 1016.0
20260506153402 59 140 11.0 0.0 0.00 0.00 0.00 72 1016.0
20260506151902 59 140 11.0 0.0 0.00 0.00 0.00 72 1016.0
20260506150408 59 140 11.0 0.0 0.00 0.00 0.00 72 1016.0
20260506144903 59 140 11.0 0.0 0.00 0.00 0.00 68 1016.0
20260506143414 59 140 11.0 0.0 0.00 0.00 0.00 68 1016.0
20260506141902 59 140 11.0 0.0 0.00 0.00 0.00 68 1016.0
20260506140526 0 0.0 0.0 0.00 0.00 0.00
20260506134927 61 150 16.0 0.0 0.00 0.00 0.00 68 1017.0
20260506133402 61 150 16.0 0.0 0.00 0.00 0.00 68 1017.0
20260506131859 61 150 16.0 0.0 0.00 0.00 0.00 68 1017.0
20260506130411 61 150 16.0 0.0 0.00 0.00 0.00 68 1017.0
20260506124903 61 150 16.0 0.0 0.00 0.00 0.00 63 1017.0
20260506123402 61 150 16.0 0.0 0.00 0.00 0.00 63 1017.0
20260506121903 61 150 16.0 0.0 0.00 0.00 0.00 63 1017.0
20260506120402 61 150 16.0 0.0 0.00 0.00 0.00 63 1017.0
20260506114902 61 150 17.0 0.0 0.00 0.00 0.00 68 1017.0
20260506113403 61 150 17.0 0.0 0.00 0.00 0.00 68 1017.0
20260506111902 61 150 17.0 0.0 0.00 0.00 0.00 68 1017.0
20260506110402 61 150 17.0 0.0 0.00 0.00 0.00 68 1017.0
20260506104903 61 160 14.0 0.0 0.00 0.00 0.00 68 1017.0
20260506103403 61 160 14.0 0.0 0.00 0.00 0.00 68 1017.0
20260506101903 61 160 14.0 0.0 0.00 0.00 0.00 68 1017.0
20260506100403 61 160 14.0 0.0 0.00 0.00 0.00 68 1017.0
20260506094903 61 180 16.0 0.0 0.00 0.00 0.00 72 1017.0
20260506093402 61 180 16.0 0.0 0.00 0.00 0.00 72 1017.0
20260506091903 61 180 16.0 0.0 0.00 0.00 0.00 72 1017.0
20260506090402 61 180 16.0 0.0 0.00 0.00 0.00 72 1017.0
20260506084903 59 140 14.0 0.0 0.00 0.00 0.00 72 1017.0
20260506083402 59 140 14.0 0.0 0.00 0.00 0.00 72 1017.0
20260506081859 59 140 14.0 0.0 0.00 0.00 0.00 72 1017.0
20260506080403 59 140 14.0 0.0 0.00 0.00 0.00 72 1017.0
20260506073403 59 140 11.0 0.0 0.00 0.00 0.00 63 1016.0
20260506071902 59 140 11.0 0.0 0.00 0.00 0.00 63 1016.0
20260506070402 59 140 11.0 0.0 0.00 0.00 0.00 63 1016.0
20260506061904 55 3.0 0.0 0.00 0.00 0.00 77 1016.0
20260506060404 55 3.0 0.0 0.00 0.00 0.00 77 1016.0
20260506050416 50 3.0 0.0 0.00 0.00 0.00 82 1016.0
20260506044918 46 3.0 0.0 0.00 0.00 0.00 71 1016.0
20260506043406 46 3.0 0.0 0.00 0.00 0.00 71 1016.0
20260506041903 46 3.0 0.0 0.00 0.00 0.00 71 1016.0
20260506040402 46 3.0 0.0 0.00 0.00 0.00 71 1016.0
20260506034903 45 3.0 0.0 0.00 0.00 0.00 76 1015.0
20260506033402 45 3.0 0.0 0.00 0.00 0.00 76 1015.0
20260506031902 45 3.0 0.0 0.00 0.00 0.00 76 1015.0
20260506030402 45 3.0 0.0 0.00 0.00 0.00 76 1015.0
20260506024902 41 3.0 0.0 0.00 0.00 0.00 93 1016.0
20260506023402 41 3.0 0.0 0.00 0.00 0.00 93 1016.0
20260506021900 0 0.0 0.0 0.00 0.00 0.00
20260506020402 0 0.0 0.0 0.00 0.00 0.00
20260506014902 41 3.0 0.0 0.00 0.00 0.00 93 1016.0
20260506013402 41 3.0 0.0 0.00 0.00 0.00 93 1016.0
20260506011903 41 3.0 0.0 0.00 0.00 0.00 93 1016.0
20260506010402 41 3.0 0.0 0.00 0.00 0.00 93 1016.0
20260506004900 41 3.0 0.0 0.00 0.00 0.00 93 1016.0
20260506003527 0 0.0 0.0 0.00 0.00 0.00
20260506001903 41 3.0 0.0 0.00 0.00 0.00 100 1016.0
20260506000403 41 3.0 0.0 0.00 0.00 0.00 100 1016.0
20260505234903 0 0.0 0.0 0.00 0.00 0.00
20260505233402 0 0.0 0.0 0.00 0.00 0.00
20260505231902 0 0.0 0.0 0.00 0.00 0.00
20260505230403 0 0.0 0.0 0.00 0.00 0.00
20260505224903 43 3.0 0.0 0.00 0.00 0.00 100 1017.0
20260505223402 43 3.0 0.0 0.00 0.00 0.00 100 1017.0
20260505221900 43 3.0 0.0 0.00 0.00 0.00 100 1017.0
20260505220403 43 3.0 0.0 0.00 0.00 0.00 100 1017.0
20260505214903 43 3.0 0.0 0.00 0.00 0.00 100 1017.0
20260505213403 43 3.0 0.0 0.00 0.00 0.00 100 1017.0
20260505211902 43 3.0 0.0 0.00 0.00 0.00 100 1017.0
20260505210403 43 3.0 0.0 0.00 0.00 0.00 100 1017.0
20260505204904 43 3.0 0.0 0.00 0.00 0.00 100 1017.0
20260505203402 45 3.0 0.0 0.00 0.00 0.00 93 1016.0
20260505201933 45 3.0 0.0 0.00 0.00 0.00 93 1016.0
20260505200403 45 3.0 0.0 0.00 0.00 0.00 93 1016.0
20260505194902 48 3.0 0.0 0.00 0.00 0.00 94 1016.0
20260505193402 48 3.0 0.0 0.00 0.00 0.00 94 1016.0
20260505191903 48 3.0 0.0 0.00 0.00 0.00 94 1016.0
20260505190402 48 3.0 0.0 0.00 0.00 0.00 94 1016.0
20260505184903 48 3.0 0.0 0.00 0.00 0.00 94 1016.0
20260505183403 48 3.0 0.0 0.00 0.00 0.00 94 1016.0
20260505181900 48 3.0 0.0 0.00 0.00 0.00 94 1016.0
20260505180403 48 3.0 0.0 0.00 0.00 0.00 94 1016.0
20260505174857 52 120 5.0 0.0 0.00 0.00 0.00 82 1015.0
20260505173402 52 120 5.0 0.0 0.00 0.00 0.00 82 1015.0
20260505171902 52 120 5.0 0.0 0.00 0.00 0.00 82 1015.0
20260505170403 52 120 5.0 0.0 0.00 0.00 0.00 82 1015.0